Weather History for CWGT - October, 2012

Change the Weather History Date:

Friday, October 12, 2012

  Actual Average Record
Temperature  
Mean Temperature 51 °F -  
Max Temperature 53 °F - - ()
Min Temperature 49 °F - - ()
Degree Days  
Heating Degree Days 14    
Growing Degree Days 1 (Base 50)    
Moisture  
Dew Point 49 °F    
Average Humidity 90    
Maximum Humidity 93    
Minimum Humidity 86    
Precipitation  
Precipitation 0.00 in - - ()
Sea Level Pressure  
Sea Level Pressure 29.79 in    
Wind  
Wind Speed 21 mph ()    
Max Wind Speed 30 mph    
Max Gust Speed 34 mph    
T = Trace of Precipitation, MM = Missing Value Source: Averaged Metar Reports

Daily Weather History Graph

Daily Weather History Graph

Search for Another Location

Airport or City:

Trip Planner

Search our weather history database for the weather conditions in past years. The results will help you decide how hot, cold, wet, or windy it might be!

Date:

Astronomy

Oct. 12, 2012 Rise Set
Actual Time 7:35 AM PDT 6:31 PM PDT
Civil Twilight 7:03 AM PDT 7:04 PM PDT
Nautical Twilight 6:26 AM PDT 7:41 PM PDT
Astronomical Twilight 5:48 AM PDT 8:18 PM PDT
Moon 4:10 AM PDT (10/12) 4:56 PM PDT (10/12)
Length of Visible Light 12h 01m
Length of Day
10h 56m
Waning Crescent, 10% of the Moon is Illuminated
Oct 12
Waning Crescent
Oct 15
New
Oct 21
First Quarter
Oct 29
Full
Nov 6
Last Quarter

Hourly Weather History & Observations

Time (PDT) Temp. Dew Point Humidity Pressure Visibility Wind Dir Wind Speed Gust Speed Precip Events Conditions
12:00 AM 50.5 °F 46.6 °F 86% 29.76 in - ESE 17.3 mph - N/A   Unknown
1:00 AM 50.2 °F 46.8 °F 88% 29.75 in - ESE 18.4 mph - N/A   Unknown
2:00 AM 49.6 °F 46.4 °F 89% 29.77 in - ESE 12.7 mph - N/A   Unknown
4:00 AM 50.0 °F 47.1 °F 90% 29.76 in - SE 17.3 mph - N/A   Unknown
5:00 AM 50 °F 47 °F 86% 29.77 in - SE 20.7 mph - -  
5:00 AM 50.0 °F 47.1 °F 90% 29.77 in - SE 20.7 mph - N/A   Unknown
6:00 AM 50.0 °F 46.9 °F 89% 29.76 in - SE 21.9 mph - N/A   Unknown
7:00 AM 50.4 °F 47.7 °F 90% 29.76 in - SE 23.0 mph - N/A   Unknown
8:00 AM 50.7 °F 47.7 °F 89% 29.76 in - ESE 26.5 mph - N/A   Unknown
9:00 AM 51.1 °F 48.4 °F 90% 29.78 in - ESE 28.8 mph - N/A   Unknown
10:00 AM 51.1 °F 48.2 °F 90% 29.78 in - ESE 28.8 mph - N/A   Unknown
11:00 AM 51 °F 49 °F 88% 29.81 in - ESE 27.6 mph - -  
11:00 AM 51.3 °F 48.6 °F 90% 29.81 in - ESE 27.6 mph - N/A   Unknown
12:00 PM 51.1 °F 48.2 °F 90% 29.81 in - ESE 28.8 mph - N/A   Unknown
1:00 PM 51.3 °F 48.6 °F 90% 29.81 in - ESE 27.6 mph 34.5 mph N/A   Unknown
2:00 PM 51.4 °F 48.7 °F 90% 29.81 in - ESE 28.8 mph - N/A   Unknown
3:00 PM 51.6 °F 49.1 °F 91% 29.80 in - ESE 28.8 mph - N/A   Unknown
4:00 PM 51.8 °F 49.1 °F 90% 29.82 in - ESE 27.6 mph - N/A   Unknown
5:00 PM 52 °F 50 °F 89% 29.81 in - ESE 26.5 mph - -  
5:00 PM 52.0 °F 49.8 °F 92% 29.81 in - ESE 26.5 mph 32.2 mph N/A   Unknown
6:00 PM 52.3 °F 50.2 °F 92% 29.81 in - ESE 27.6 mph - N/A   Unknown
7:00 PM 52.7 °F 50.5 °F 92% 29.80 in - ESE 27.6 mph - N/A   Unknown
8:00 PM 52.9 °F 50.5 °F 92% 29.81 in - ESE 27.6 mph - N/A   Unknown
9:00 PM 53.1 °F 50.5 °F 91% 29.81 in - ESE 29.9 mph - N/A   Unknown
10:00 PM 53.1 °F 50.9 °F 92% 29.83 in - ESE 27.6 mph - N/A   Unknown
11:00 PM 53 °F 51 °F 91% 29.83 in - ESE 28.8 mph - -  
11:00 PM 53.1 °F 51.1 °F 93% 29.83 in - ESE 28.8 mph - N/A   Unknown